BEIDOU-2 G1

Last updated on Fri Sep 19 2025 00:02:47 GMT+0000 (Coordinated Universal Time)

1 36287U 10001A 25261.32435326 -.00000298 00000+0 00000+0 0 9990 2 36287 3.6542 60.7814 0002152 247.9221 305.9853 1.00269064 57442
UTC large
Height (km)
Speed (km/s)
/
Latitude / Longitude
Inclination (degrees)
Orbital Period (minutes)
Azimuth
Elevation
Range (km)
Doppler Factor

Next 0 passes for location: London (51.5072 / 0.1276)

Sorry there are no passes over London.